Regional Weather Roundup
Issued by NWS Bismarck, ND

Home | Current Version | Previous Version | Text Only | Print | Product List | Glossary On
Versions: 1 2 3 4 5 6 7 8 9 10 11 12 13 14 15 16 17 18 19 20 21 22 23 24 25 26 27 28 29 30 31 32 33 34 35 36 37 38 39 40 41 42 43 44 45 46 47 48 49 50
000
ASUS43 KBIS 240801
RWRBIS

NWR BROADCAST TEXT
NATIONAL WEATHER SERVICE BISMARCK ND
300 AM CDT SUN MAY 24 2015

NOTE: "FAIR" INDICATES FEW OR NO CLOUDS BELOW 12,000 FEET WITH NO
SIGNIFICANT WEATHER AND/OR OBSTRUCTIONS TO VISIBILITY.


CITY           SKY/WX    TMP DP  RH WIND       PRES   REMARKS
WILLISTON      MOCLDY    51  43  74 NE3       30.10F
MINOT          PTCLDY    53  45  74 CALM      30.09F
MINOT AFB      NOT AVBL
BISMARCK       CLOUDY    56  52  86 E5        30.09F
DICKINSON      CLEAR     46  44  93 NE6       30.07S
GARRISON         N/A     55  48  77 CALM      30.10S
HETTINGER ARPT CLOUDY    50  47  89 E7        30.08R
JAMESTOWN      CLOUDY    56  51  84 CALM      30.09F
CARRINGTON     FAIR      52  52 100 NW3       30.11S
HAZEN          PTSUNNY   46  46 100 CALM      30.10S
OAKES            N/A     52  50  93 E7        30.08F
STANLEY        FAIR      46  46 100 CALM      30.12S
$$

CITY           SKY/WX    TMP DP  RH WIND       PRES   REMARKS
GRAND FORKS    CLEAR     50  44  80 CALM      30.09S
GRAND FORKS AF NOT AVBL
DEVILS LAKE    PTCLDY    52  45  76 CALM      30.09F
FARGO          CLEAR     51  47  86 CALM      30.10R
CAVALIER       FAIR      59  45  58 W7        30.09S
GRAFTON        FAIR      52  46  82 CALM      30.10S
LANGDON        FAIR      48  43  81 SW9       30.12S
ROLLA          CLOUDY    52  43  71 SW8       30.11F
WALHALLA         N/A     61  45  55 W3        30.09S
$$

CITY           SKY/WX    TMP DP  RH WIND       PRES   REMARKS
ABERDEEN       CLOUDY    55  49  80 E9        30.05F
MOBRIDGE       CLOUDY    55  52  89 E10       30.02F
RAPID CITY     LGT RAIN  53  52  96 E7        30.00F FOG
GLASGOW        CLEAR     47  39  74 NE7       30.09F
SIDNEY         MOCLDY    52  45  76 CALM      30.09F
WOLF POINT     PTCLDY    45  40  82 CALM      30.10F
GLENDIVE       MOCLDY    48  45  87 N5        30.09S
MILES CITY     CLOUDY    52  50  93 NE13      30.05F
BAKER          CLOUDY    49  47  93 NE3       30.07F
$$

CITY           SKY/WX    TMP DP  RH WIND       PRES   REMARKS
BILLINGS       CLOUDY    50  45  83 NE8       30.06S
GREAT FALLS    MOCLDY    48  47  96 SW3       30.11S
$$



USA.gov is the U.S. government's official web portal to all federal, state and local government web resources and services.